Home > Time Zones > World Clock > Weather > India > Buxar > Past weeks

Flag for India Weather past 2 weeks in Buxar, Bihar, India

Now
111 °F

Clear.


Feels Like: 108 °F
Forecast: 86 / 111 °F
Wind: 7 mph from Southwest

Location: Varanasi / Babatpur

Current Time: May 24, 2015 at 5:53:24 PM

Latest Report: May 24, 2015 at 5:00 PM


Visibility: 4 mi

Pressure: 29.45 "Hg

Humidity: 13%

Dew point: 50 °F

Location of BuxarLocation

Historic Weather in Buxar — Graph

°F

Buxar temperature yesterday

Maximum temperature yesterday: 113 °F (at 1:00 PM)
Minimum temperature yesterday: 84 °F (at 5:00 AM)
Average temperature yesterday: 100 °F

Past Weeks' High & Low Weather Summary

 TemperatureHumidityPressure
High113 °F (May 23, 1:00 PM)74% (May 19, 6:00 AM)29.80 "Hg (May 19, 6:00 AM)
Low81 °F (May 13, 6:00 AM)9% (May 23, 2:00 PM)29.36 "Hg (May 18, 6:00 PM)
Average95 °F40%29.60 "Hg
* Reported May 10 4:00 AM — May 24 4:00 PM, Buxar, Weather by CustomWeather, © 2015

Note: Actual official high and low records may vary slightly from our data, if they occured in-between our weather recording intervals... More about our weather records

Advertising

Buxar weather history for previous 24 hours

 ConditionsComfort  
Time TempWeatherWind HumidityBarometerVisibility
4:00 PM
Sun, May 24
111 °FClear.12 mph13%29.45 "Hg4 mi
3:00 PM113 °FClear.12 mph12%29.47 "Hg4 mi
2:00 PM111 °FClear.13 mph12%29.47 "Hg4 mi
1:00 PM111 °FClear.12 mph12%29.50 "Hg3 mi
12:00 PM109 °FClear.8 mph12%29.50 "Hg3 mi
11:00 AM106 °FDuststorm.6 mph14%29.53 "Hg3 mi
10:00 AM104 °FDuststorm.3 mph15%29.53 "Hg3 mi
9:00 AM100 °FHaze.3 mph21%29.50 "Hg2 mi
8:00 AM95 °FScattered clouds.6 mph25%29.50 "Hg2 mi
7:00 AM88 °FPassing clouds.6 mph35%29.50 "Hg2 mi
5:00 AM88 °FHaze.3 mph33%29.45 "Hg2 mi
4:00 AM88 °FHaze.No wind33%29.45 "Hg2 mi
12:00 AM90 °FHaze.No wind31%29.45 "Hg2 mi
11:00 PM
Sat, May 23
93 °FHaze.3 mph28%29.45 "Hg2 mi
10:00 PM93 °FHaze.3 mph28%29.47 "Hg2 mi
9:00 PM95 °FHaze.3 mph26%29.47 "Hg3 mi
8:00 PM99 °FHaze.3 mph24%29.45 "Hg3 mi
7:00 PM102 °FScattered clouds.3 mph20%29.42 "Hg3 mi
6:00 PM109 °FHaze.7 mph15%29.42 "Hg3 mi
5:00 PM111 °FHaze.12 mph11%29.42 "Hg3 mi
Weather by CustomWeather, © 2015

See weather overviewHow to use our weather pages